Location: Ferchesar
(52.6477°N, 12.4298°E)
Time: 06:38:41
(UTC+01:00)

A-11 Canister half - Pass Details

Date: 06 December 2021
Orbit: 1516 x 1684 km, 47.2° (Epoch: 22 January)

Event Time Altitude Azimuth Distance (km) Brightness Sun altitude
Rises 05:27:36 0° 198° (SSW) 4,728 11.5 -22.7°
Reaches altitude 10° 05:31:17 10° 186° (S) 3,773 11.1 -22.2°
Maximum altitude 05:38:40 26° 135° (SE) 2,781 10.9 -21.1°
Drops below altitude 10° 05:46:14 10° 85° (E) 3,888 12.2 -19.9°
Sets 05:50:05 0° 74° (ENE) 4,900 12.7 -19.4°
